Simultaneous Nadir Overpasses (SNOs) Predictions

Prediction of SNOs between LANDSAT-8 and METOP-B Satellite Orbit:

Table of predicted SNOs for the next 14.0 days since TLE Epoch: 4/10/2015
Index Date (LANDSAT-8) Time (LANDSAT-8) Lat,Lon (LANDSAT-8) SZA (LANDSAT-8 ) Date (METOP-B) Time (METOP-B) Lat,Lon (METOP-B) SZA (METOP-B ) Distance(km) Time Diff (sec)
1 04/12/2015 11:19:32 81.03, 47.95 74.25 04/12/2015 11:19:01 81.03, 48.10 74.26 2.66 31
2 04/12/2015 12:08:57 -81.07,-143.76 105.67 04/12/2015 12:09:40 -81.07,-143.72 105.65 0.78 43
3 04/15/2015 06:53:46 81.04, 114.61 73.29 04/15/2015 06:53:23 81.05, 114.79 73.30 3.10 23
4 04/15/2015 07:43:12 -81.07, -77.44 106.68 04/15/2015 07:44:03 -81.07, -77.37 106.65 1.15 51
5 04/18/2015 02:28:00 81.03,-179.15 72.28 04/18/2015 02:27:46 81.03,-179.31 72.26 2.81 14
6 04/18/2015 03:17:25 -81.08, -10.82 107.63 04/18/2015 03:18:24 -81.08, -10.70 107.59 2.04 59
7 04/20/2015 22:02:14 81.04,-112.62 71.34 04/20/2015 22:02:08 81.03,-112.72 71.33 1.81 6
8 04/20/2015 22:51:40 -81.06, 55.37 108.62 04/20/2015 22:52:47 -81.07, 55.54 108.57 3.06 67
9 04/23/2015 16:47:03 -81.01, 145.85 109.63 04/23/2015 16:45:52 -81.01, 145.75 109.68 1.89 71
10 04/23/2015 17:36:28 81.04, -46.15 70.42 04/23/2015 17:36:30 81.04, -46.18 70.41 0.53 2




NCC Satellite Simultaneous Nadir Overpasses (SNOs) Prediction Service
